GFSFLT1_con_3kmhel_132.txt.gz
Helicity
54 64 85 83 94 108 136 114 87 77 140 215 182 127 82 74 61 48 37 65 108 105 90 102 115 108 126 143 142 110 102 101
-19 74 81 81 108 137 113 169 120 148 150 172 193 170 132 110 106 84 83 78 106 154 117 109 125 120 153 164 180 150 148 121
23 -24 48 108 107 128 126 158 124 163 141 212 228 212 134 110 116 90 89 127 158 170 124 109 112 135 135 178 184 234 210 208
27 18 11 73 107 150 118 155 124 167 127 163 223 184 146 140 99 111 103 129 152 178 127 115 111 114 130 160 170 167 210 210
40 16 25 36 73 175 144 164 145 135 153 148 188 250 202 149 136 110 122 114 134 128 120 151 158 167 147 128 125 134 122 157
122 131 33 51 74 137 188 145 170 118 165 164 179 194 189 116 115 95 107 132 125 161 187 217 239 232 194 110 141 107 91 101
230 457 351 246 201 127 168 202 185 136 152 186 151 137 131 145 165 181 145 149 175 235 345 456 380 337 255 114 59 119 118 84
181 281 274 331 279 234 226 220 353 388 385 389 288 128 184 168 143 167 162 180 222 275 284 346 383 293 236 248 279 206 121 107
310 309 325 315 439 413 295 337 436 536 480 484 499 466 506 401 333 259 185 189 141 124 152 176 176 222 247 269 260 81 107 164
370 372 397 414 453 427 428 396 492 530 478 459 435 591 361 325 310 308 287 342 286 257 255 162 143 127 188 195 132 154 210 193
350 458 429 476 520 505 488 396 455 559 448 399 367 411 367 323 312 332 361 325 297 246 193 167 211 222 140 137 154 189 201 211
363 523 495 605 510 504 520 480 329 388 408 367 395 403 397 361 355 341 288 250 223 201 162 189 162 132 131 178 213 243 258 274
203 435 378 329 488 581 539 622 422 356 368 406 420 418 390 378 343 291 211 179 139 177 192 159 110 116 138 166 167 238 259 260
174 362 470 474 553 645 659 703 731 450 410 392 291 340 324 329 324 360 259 163 197 158 95 112 111 125 145 167 170 176 187 214
131 222 251 319 392 593 589 506 518 511 500 459 349 346 466 397 274 245 191 133 107 132 159 154 145 136 142 151 148 148 168 177
112 140 212 208 302 329 339 309 294 272 179 188 176 183 156 144 137 104 116 93 96 97 113 144 148 142 129 116 131 131 114 140
26 46 79 125 113 186 204 255 228 196 271 205 182 209 175 140 122 153 142 130 119 95 80 92 114 133 162 149 136 122 121 112
18 20 37 58 77 84 118 115 109 147 200 164 214 244 190 182 169 124 88 77 57 60 73 99 113 144 155 153 166 137 105 110
52 33 20 16 37 49 41 31 49 67 69 87 103 131 121 100 104 92 77 60 52 36 30 52 78 101 166 163 158 117 116 134

GFSFLT1_con_3kmhel_135.txt.gz
Helicity
49 20 51 76 85 97 99 108 185 120 131 145 159 209 173 132 120 82 62 85 38 66 54 89 53 89 75 48 59 108 51 99
131 170 83 33 42 50 89 136 160 147 119 160 156 196 209 145 138 100 110 71 72 61 90 119 86 64 83 101 96 114 122 118
93 157 162 163 83 66 52 75 148 201 160 141 164 202 258 217 159 143 111 93 94 118 163 128 104 82 102 132 158 166 168 141
120 121 181 225 201 61 58 52 103 170 179 174 143 179 206 216 228 169 149 176 168 139 153 146 115 88 143 197 211 161 183 176
-5 57 151 242 262 99 40 55 39 134 123 121 147 188 199 194 247 236 148 158 150 159 171 154 139 160 170 273 229 172 164 155
18 102 164 120 168 327 130 49 42 82 132 105 192 142 171 211 262 171 153 123 152 154 156 155 173 313 383 279 218 183 143 128
35 94 154 183 196 188 345 394 43 76 150 118 163 139 165 203 197 251 218 228 217 193 146 156 292 378 352 293 175 191 156 146
-25 65 159 243 262 242 240 272 277 192 182 107 135 175 148 179 197 258 347 321 255 192 169 228 309 365 364 358 417 335 362 200
18 45 102 212 186 287 291 198 272 164 101 189 285 488 176 222 180 252 322 290 187 152 223 303 266 280 259 225 199 212 288 257
-16 79 115 172 261 302 289 375 359 420 412 346 722 740 478 562 660 534 366 291 254 172 217 196 188 177 164 148 139 112 199 239
42 128 170 181 342 337 409 503 445 441 413 358 575 675 606 743 794 823 682 595 394 267 193 165 192 196 135 136 157 133 167 129
32 83 93 194 221 455 450 472 581 513 479 466 472 619 672 612 678 491 256 295 323 371 330 324 302 243 200 202 188 177 158 109
19 74 109 144 241 419 479 510 382 504 470 349 270 480 465 620 494 507 477 328 320 317 297 273 227 179 132 133 152 153 149 148
32 65 109 135 166 207 506 514 585 545 519 349 297 274 191 421 480 371 265 246 246 261 256 229 189 159 152 166 147 110 132 161
2 26 63 108 149 185 325 385 375 306 344 420 405 331 313 412 357 273 140 181 221 201 173 185 170 215 197 126 113 130 133 160
27 21 32 73 127 174 181 303 317 282 311 268 241 190 139 170 212 189 191 198 199 232 255 268 248 192 121 222 274 272 248 215
6 16 20 34 57 77 80 80 148 139 250 363 235 310 207 144 173 197 158 127 128 111 151 137 138 137 199 190 189 189 206 189
12 0 14 24 38 43 30 39 21 51 80 105 149 212 200 129 153 209 191 89 92 124 123 135 134 121 131 119 149 116 94 90
19 20 19 26 42 39 42 40 37 62 83 96 101 105 114 144 97 114 116 110 100 88 79 81 95 104 131 144 128 65 65 68

GFSFLT1_con_3kmhel_138.txt.gz
Helicity
52 66 45 90 168 246 370 64 82 42 77 169 171 226 169 188 193 190 247 238 186 157 116 128 96 80 75 79 47 87 123 98
-9 18 124 174 106 262 319 197 200 38 85 188 150 161 224 176 220 244 290 304 198 204 122 152 131 133 81 118 100 62 85 74
-5 -16 108 155 223 215 233 187 199 86 59 62 175 148 185 281 187 228 221 249 200 208 208 184 144 158 101 112 142 139 121 125
10 24 53 129 190 246 197 232 306 257 69 80 94 159 148 152 160 210 168 286 233 179 227 292 223 194 172 141 132 138 171 197
15 30 53 87 138 140 95 220 313 479 105 108 74 182 139 173 186 198 227 215 241 213 226 236 238 197 151 192 223 215 221 180
5 11 32 55 56 78 47 89 156 294 473 90 95 146 177 119 197 145 220 214 303 256 206 203 255 201 157 238 352 301 296 265
-3 -4 22 42 25 92 85 28 128 260 277 236 138 44 140 110 117 162 258 290 357 312 267 218 197 256 261 362 379 355 280 247
-27 -15 -20 6 28 113 108 120 206 278 146 173 76 -26 119 94 75 257 232 314 339 298 273 209 204 237 349 427 377 321 256 234
-52 -37 -44 -27 10 104 135 208 272 403 292 156 99 -39 -121 -71 43 229 201 279 270 307 302 212 188 274 357 386 366 254 255 247
-17 -32 -29 -17 33 102 144 202 398 501 469 259 145 78 -45 29 136 275 171 241 293 264 236 207 238 325 335 303 280 299 224 179
0 -21 -16 2 86 139 156 315 343 495 379 535 355 310 407 479 296 264 270 750 513 543 482 446 401 323 272 200 179 216 143 93
-22 21 14 43 87 153 179 362 429 402 432 557 468 322 590 649 919 439 384 1223 931 728 607 563 299 279 310 193 138 91 122 111
10 4 7 20 64 118 197 253 401 370 549 437 475 364 353 788 773 666 984 957 892 759 784 810 498 391 271 177 126 122 163 182
4 14 15 13 31 47 116 144 166 308 303 510 372 478 479 424 426 515 1187 881 761 766 629 531 363 283 292 258 234 217 210 150
5 1 8 -6 -1 21 38 85 79 158 238 335 286 342 535 313 248 389 432 536 450 551 530 502 430 287 259 255 326 316 313 290
29 15 -4 -6 14 32 35 16 -18 16 95 240 289 205 259 397 287 315 334 481 398 179 249 286 258 201 230 189 224 214 234 260
15 22 27 -3 19 10 16 25 18 47 65 101 257 159 182 121 165 216 348 282 136 120 106 152 162 87 161 195 216 176 149 113
8 14 16 18 -3 0 -3 -7 7 28 61 63 131 178 113 149 81 153 158 105 85 66 44 39 79 95 191 220 252 140 102 64
9 -1 2 7 2 -11 -6 4 5 42 22 61 87 95 98 112 114 115 99 102 133 152 161 167 134 96 121 158 195 80 53 37

GFSFLT1_con_3kmhel_141.txt.gz
Helicity
228 115 -48 -124 -59 5 83 115 185 91 4 153 202 237 156 98 210 225 233 266 220 257 236 192 174 151 130 98 85 105 67 41
99 17 -29 -73 41 98 91 89 203 139 -91 10 170 254 165 177 97 122 194 210 275 284 279 217 157 168 156 128 166 140 81 103
15 -30 -58 18 69 127 175 128 171 237 117 -62 36 208 200 120 180 103 94 169 247 274 313 252 197 197 173 170 152 204 160 144
11 -28 21 44 74 97 173 214 197 226 268 42 -77 56 152 230 126 147 95 107 180 265 286 317 256 214 186 178 169 153 204 178
-27 22 45 16 23 63 105 151 196 165 276 158 129 6 85 163 123 115 112 62 120 206 294 309 337 278 203 216 206 173 228 225
1 49 10 -0 -9 13 43 108 132 126 57 128 141 133 118 110 158 116 131 101 119 203 304 308 336 350 295 263 205 199 225 263
2 2 3 -6 -17 -3 1 31 152 207 133 143 162 95 99 52 178 157 118 94 103 128 299 326 366 389 389 317 229 210 219 223
8 10 -13 -16 -20 23 17 11 97 154 168 173 133 104 108 66 118 121 76 24 53 99 207 380 332 425 376 305 257 240 263 279
48 23 9 -13 6 -8 11 15 25 114 151 198 200 104 3 115 7 83 -24 -74 -74 -11 67 307 287 362 355 368 344 305 314 260
38 27 16 5 6 -22 -0 13 73 98 125 179 244 234 239 193 116 24 -45 -181 -201 -170 145 248 263 263 337 378 388 343 315 286
15 45 14 8 35 36 19 47 74 110 189 244 295 311 449 293 114 130 60 -46 -163 -119 11 108 319 281 248 310 343 348 309 337
-0 34 30 31 28 36 45 48 75 125 220 336 446 424 416 379 281 260 237 201 77 -27 -208 127 312 274 246 292 353 381 327 250
6 41 46 10 -1 23 38 35 -13 88 201 297 479 463 469 355 351 348 377 420 340 148 243 284 809 858 744 648 518 503 247 97
9 29 52 32 5 7 18 27 23 48 109 195 265 338 421 349 446 489 351 487 669 427 459 505 1572 937 887 829 685 581 271 488
4 13 32 53 35 21 23 1 28 34 69 81 120 264 457 466 278 536 431 525 547 691 362 186 878 730 728 713 536 568 360 310
-1 -0 13 27 46 44 25 23 7 7 -4 32 109 62 137 294 330 242 373 381 553 381 634 430 60 600 626 478 395 356 293 195
1 7 -2 16 25 50 37 25 24 27 42 31 14 -2 19 118 314 262 215 246 284 325 321 148 22 -71 398 327 236 171 127 67
4 11 1 -1 4 1 18 34 19 15 32 44 75 81 51 25 15 142 137 224 200 154 150 187 162 273 272 285 297 116 108 109
31 12 -5 5 6 -5 -4 14 28 46 23 32 39 37 37 46 72 101 94 55 69 84 88 87 117 146 225 250 227 74 55 113